Date,TemperatureHighF,TemperatureAvgF,TemperatureLowF,DewpointHighF,DewpointAvgF,DewpointLowF,HumidityHigh,HumidityAvg,HumidityLow,PressureMaxIn,PressureMinIn,WindSpeedMaxMPH,WindSpeedAvgMPH,GustSpeedMaxMPH,PrecipitationSumIn
2013-3-1,29.0,25.4,23.0,28.5,23.3,20.0,99,92,84,29.92,29.73,13,4,14,0.00
2013-3-2,23.0,21.4,20.0,21.5,18.8,15.8,94,90,78,29.91,29.86,13,3,15,0.00
2013-3-3,24.0,20.8,18.0,21.0,17.8,15.1,94,88,73,29.91,29.83,22,5,24,0.00
2013-3-4,24.0,21.2,18.0,21.3,18.2,14.8,93,88,83,30.04,29.91,20,7,24,0.00
2013-3-5,37.0,27.0,20.0,24.8,21.0,16.8,94,79,59,30.05,29.78,13,3,14,0.24
2013-3-6,40.0,33.1,27.0,28.4,24.3,21.1,83,71,53,30.10,29.78,16,4,16,0.04
2013-3-7,33.0,31.2,29.0,31.0,29.4,27.4,98,93,83,30.24,30.08,16,4,16,0.00
2013-3-8,40.0,31.1,22.0,29.7,25.3,18.5,99,81,50,30.39,30.24,15,4,19,0.12
2013-3-9,52.0,31.8,16.0,31.1,23.5,14.8,99,76,36,30.40,30.16,10,1,10,0.00
2013-3-10,65.0,49.4,31.0,30.3,25.4,20.0,85,41,26,30.17,29.97,20,5,23,0.00
2013-3-11,59.0,51.2,44.0,42.7,29.4,25.4,93,44,32,29.99,29.65,30,9,34,0.17
2013-3-12,45.0,34.6,30.0,43.1,32.3,26.6,98,92,78,29.92,29.71,16,5,18,0.33
2013-3-13,32.0,27.1,21.0,27.2,22.2,15.9,97,82,66,29.99,29.83,31,8,32,0.01
2013-3-14,28.0,23.6,20.0,20.5,16.3,13.4,94,74,58,30.10,29.99,29,9,29,0.00
2013-3-15,32.0,27.2,17.0,30.5,24.7,14.8,98,90,75,30.05,29.79,23,6,24,0.01
2013-3-16,31.0,27.0,23.0,28.5,23.0,18.3,95,85,71,29.95,29.71,10,2,11,0.03
2013-3-17,30.0,23.2,15.0,23.1,16.3,12.4,96,76,54,30.25,29.94,14,2,14,0.06
2013-3-18,32.0,26.3,20.0,30.2,21.0,12.1,93,81,57,30.22,29.65,31,8,32,0.00
2013-3-19,34.0,28.3,23.0,32.8,25.2,18.7,99,88,69,29.84,29.64,23,8,29,0.07
2013-3-20,27.0,22.2,14.0,23.5,19.1,11.1,96,88,67,29.84,29.80,24,7,24,0.00
2013-3-21,25.0,19.5,10.0,22.8,16.4,7.7,96,88,68,29.80,29.72,21,6,25,0.00
2013-3-22,27.0,24.0,21.0,22.0,20.9,19.2,96,88,76,29.96,29.76,24,8,26,0.00
2013-3-23,34.0,28.1,23.0,25.4,22.4,17.8,90,79,63,30.02,29.92,18,4,18,0.00
2013-3-24,37.0,27.2,12.0,25.0,18.9,10.4,96,73,49,30.01,29.58,15,3,18,0.25
2013-3-25,37.0,31.4,27.0,31.4,27.0,21.1,96,84,67,29.72,29.52,14,4,16,0.18
2013-3-26,42.0,33.1,24.0,30.3,26.8,22.3,95,79,54,29.99,29.72,18,4,21,0.00
2013-3-27,36.0,32.2,28.0,31.2,27.3,22.0,97,82,66,30.08,29.97,23,8,25,0.00
2013-3-28,36.0,32.2,29.0,32.5,30.6,28.8,100,94,82,30.22,30.04,12,4,13,0.14
2013-3-29,47.0,37.0,30.0,33.6,27.9,21.8,95,72,43,30.21,30.16,17,2,21,0.00
2013-3-30,50.0,36.0,22.0,27.7,22.9,17.3,96,64,29,30.21,30.02,14,2,14,0.00
2013-3-31,51.0,41.6,32.0,41.5,31.4,19.9,94,70,40,30.02,29.63,19,5,22,0.06